Погода в Агуадилье

Пуэрто-Рико     18°28′18″N   67°08′18″W
темп.,
°C
ветер,
м/с
пор.,
м/с
влажн.,
%
обл.,
%
осадки,
мм/ч
давл.,
гПа
погр.,
м
9 августа, вт
вт923:00+28всв912800 0.0 10161127
02:00+28в913770 0.0 10141207
05:00+27в811795 0.0 10151016
08:00+28в7107216 0.1 1016805
11:00+29всв9107113 0.1 1017683
14:00+28св11117727 0.1 1016823
17:00+28св91077100 0.0 1015887
20:00+28всв91080100 0.0 1016910
10 августа, ср
ср1023:00+27всв91080100 0.3 1017846
02:00+27всв8108180 0.4 1015790
05:00+27в89825 0.1 1015604
08:00+27в787916 0.1 1017533
11:00+29всв567096 0.0 1017478
14:00+29всв8871100 0.0 1016545
17:00+28всв7773100 0.0 1015692
20:00+28всв101180100 0.3 1016696
11 августа, чт
чт1123:00+27в81078100 0.1 1016599
02:00+27в797795 0.1 1014467
05:00+26в57756 0.0 1014390
08:00+27в78775 0.0 1015513
11:00+29всв677416 0.0 1016496
14:00+28всв567346 2.2 1015589
17:00+28всв5578100 4.8 1014321
20:00+28в7778100 7.2 1014498
12 августа, пт
пт1223:00+27в777955 0.6 1016514
02:00+27в79805 0.6 1014525
05:00+26в698242 0.0 1014493
08:00+27в577984 0.0 1015435
11:00+28в247199 0.0 1016426
14:00+28всв657493 0.4 1015555
17:00+28всв8875100 0.3 1014655
20:00+28всв9107713 0.4 1015637
13 августа, сб
сб1323:00+27в78775 0.0 1016531
02:00+26в6979100 0.0 1015607
05:00+26в79797 0.0 1015548
08:00+27в710776 0.0 1016756
11:00+29всв787131 0.0 1016750
14:00+28всв7876100 0.3 1014728
17:00+28всв457781 5.1 1014361
20:00+28всв79795 8.5 1015795